Wind_Speed
32 31 30 28 27 25 24 23 21 20 19 19 19 19 20 21 21 22 23 24 25 26 27 29 30 31 32 33 34 35 36 37 38 39 40 41 42 43 44 44 44 44 44
34 32 31 30 28 26 25 24 23 22 21 20 20 20 21 22 22 23 24 25 26 27 29 30 31 32 33 34 35 36 37 38 39 40 41 43 44 45 45 45 46 46 46
36 34 32 31 29 28 26 25 24 23 22 22 21 21 22 22 23 24 25 26 27 28 30 31 32 33 34 35 36 37 38 40 41 42 43 44 45 46 46 47 47 47 47
37 35 34 32 30 28 27 26 25 24 24 23 23 23 23 24 25 25 26 27 28 29 31 32 33 34 35 36 37 39 40 41 42 43 45 46 47 47 48 48 48 49 49
39 37 35 33 31 30 29 28 27 26 25 25 24 24 24 25 26 27 27 29 29 31 32 33 34 35 36 37 39 40 41 42 44 45 46 47 48 49 49 50 50 50 51
40 39 37 35 33 31 30 29 28 27 27 26 26 26 26 26 27 28 29 30 30 32 33 34 35 36 37 39 40 41 43 44 45 46 48 49 50 50 51 51 52 52 53
41 39 38 36 34 33 31 30 29 29 28 27 27 27 27 27 28 29 30 31 32 33 34 35 36 37 38 39 41 42 44 45 47 48 49 50 51 52 52 53 53 54 55
42 40 38 37 35 34 33 32 31 30 29 29 28 29 28 29 29 30 31 32 33 34 35 36 37 38 39 40 42 43 45 46 48 49 50 52 53 53 54 54 55 55 57
44 42 40 38 37 35 34 33 32 31 31 30 30 30 30 30 31 32 32 33 34 35 36 37 39 39 40 41 43 44 46 47 49 50 52 53 54 54 55 55 56 57 59
45 43 41 39 38 36 36 35 34 33 32 32 31 31 31 31 32 32 33 34 34 36 37 38 39 40 41 42 44 45 47 48 50 51 53 54 55 55 56 57 58 59 61
45 43 42 40 39 38 37 36 35 34 34 33 33 32 32 33 33 34 34 34 35 36 38 39 40 41 42 43 45 47 48 49 51 52 54 55 55 56 57 58 59 61 62
45 44 42 41 40 39 38 37 36 35 35 34 34 34 34 34 34 35 35 35 36 37 39 40 41 42 43 44 46 48 49 50 52 54 55 55 56 57 58 59 61 62 63
45 44 43 42 40 39 38 37 36 36 36 35 35 35 35 35 35 36 36 36 37 38 39 41 42 43 44 45 47 48 50 51 53 55 55 56 57 58 59 60 62 63 62
45 44 44 43 41 40 38 38 37 37 37 36 36 36 36 36 36 36 37 37 38 39 40 41 42 44 45 46 47 49 50 52 54 55 56 57 58 59 60 62 62 62 60
45 44 43 43 41 40 39 38 38 37 37 37 37 37 37 36 36 37 37 38 39 39 40 42 43 44 45 47 48 50 51 53 55 55 56 58 59 60 61 62 61 60 59
46 45 44 43 42 41 40 39 38 38 37 37 37 37 37 37 37 38 38 39 40 41 41 42 43 45 46 47 49 50 52 54 55 56 57 58 59 60 61 60 59 58 57
46 45 45 44 43 41 40 39 38 38 38 37 37 37 37 37 38 38 39 39 41 41 42 42 44 45 47 48 49 51 52 54 55 56 57 58 59 60 59 59 58 57 56
47 46 45 44 43 42 41 39 39 39 38 38 38 38 38 38 38 38 39 40 41 42 42 42 43 45 46 48 49 51 53 54 55 56 57 58 59 58 58 58 58 57 55
47 46 45 44 42 41 41 40 39 39 38 38 38 38 38 38 38 39 39 40 41 42 42 43 43 45 46 47 49 51 53 54 55 56 57 58 58 58 58 57 57 56 55
48 47 46 45 43 42 41 40 40 39 38 38 38 38 38 38 39 39 40 40 41 41 42 42 43 44 46 47 49 51 52 53 54 55 56 57 57 57 57 57 57 55 54
48 47 47 46 45 43 42 41 40 39 39 39 38 38 38 38 39 39 39 40 41 41 41 41 43 44 46 47 49 51 52 53 54 55 56 57 57 57 57 56 55 54 53
49 48 47 46 46 44 42 42 40 40 39 38 38 38 38 39 38 39 39 39 39 40 40 42 43 44 46 47 49 51 51 52 54 55 55 56 57 57 57 56 55 54 53
49 48 47 47 46 44 43 42 40 39 39 38 38 38 38 38 38 38 38 38 39 40 40 41 42 44 46 47 49 50 51 52 54 54 55 56 57 57 57 55 54 53 51
48 47 47 46 45 43 42 41 40 39 39 38 38 37 37 37 37 37 38 38 39 39 40 41 43 44 46 47 48 49 50 52 53 54 54 56 57 57 56 55 53 51 49
48 47 46 45 44 43 41 41 40 40 38 38 38 37 37 36 36 36 37 38 38 39 40 41 43 44 45 46 47 48 49 51 53 53 54 54 55 55 54 53 51 49 47
49 47 45 44 44 43 42 41 41 40 39 39 38 37 36 35 35 36 37 38 37 38 40 41 42 43 44 45 45 47 49 51 52 52 52 53 54 53 51 50 48 46 45
Wind_Direction
230 231 234 237 240 242 245 248 254 260 265 270 275 280 283 287 291 296 302 305 307 309 311 313 315 316 317 318 319 320 321 321 320 320 319 319 318 318 317 316 315 314 312
230 232 235 238 240 242 245 249 253 260 265 270 275 280 284 287 290 295 300 303 306 308 310 311 313 315 316 317 318 319 320 320 320 319 319 318 318 318 317 315 315 313 311
230 233 235 238 240 243 245 249 253 259 264 269 274 279 284 287 290 295 298 302 305 307 309 310 311 313 315 316 317 318 319 319 319 319 318 318 318 317 316 315 314 313 311
230 233 235 237 240 242 245 248 253 257 263 269 273 279 284 287 291 294 297 300 303 306 308 309 311 312 313 315 316 317 317 318 318 318 318 318 317 317 316 315 314 312 311
231 233 235 237 239 242 245 249 253 257 262 268 273 278 283 287 290 293 296 300 302 305 307 308 310 311 312 314 316 317 317 317 318 318 318 317 317 316 315 314 313 312 311
231 233 235 236 238 242 245 248 252 257 262 268 272 277 282 287 290 293 296 299 301 304 306 307 309 310 312 313 315 316 317 317 317 318 318 318 317 316 315 314 313 312 312
231 233 234 236 238 242 245 248 252 257 262 267 272 276 281 285 289 293 296 298 301 303 305 307 308 310 311 313 314 315 316 317 317 318 318 318 317 316 315 314 314 313 312
231 233 235 236 238 241 245 248 252 257 261 266 270 275 279 284 288 292 296 298 301 303 305 306 307 309 311 312 314 315 316 317 317 318 318 318 317 316 315 315 314 313 313
230 232 234 236 238 241 244 248 252 257 260 265 269 274 278 283 288 292 295 298 300 303 304 306 307 309 310 312 313 315 316 317 318 318 319 318 317 316 316 315 315 314 314
231 233 235 236 238 241 245 248 252 256 260 265 269 273 277 283 287 290 293 296 299 301 303 305 307 308 310 312 313 315 316 317 318 318 319 318 317 317 316 316 316 315 315
231 232 235 237 239 242 246 249 252 256 261 264 268 272 277 282 286 289 292 295 298 301 303 304 306 308 310 312 313 315 316 317 318 318 319 318 318 318 317 317 317 317 316
230 232 235 238 241 244 246 249 252 256 260 264 268 272 277 282 285 289 292 295 298 301 302 304 306 308 310 312 313 315 316 317 318 319 319 318 319 318 318 318 318 318 317
231 233 235 238 241 244 246 249 252 256 259 263 268 272 276 281 284 288 291 294 297 300 302 304 306 308 310 312 313 315 316 317 318 319 319 319 319 319 319 319 319 318 318
232 234 236 238 241 244 247 250 253 256 260 263 267 272 276 280 283 287 291 294 296 299 302 304 306 308 309 311 313 315 316 317 319 319 319 319 319 319 319 320 319 319 318
231 233 236 239 242 245 247 250 254 257 260 264 268 272 275 279 283 287 290 293 296 299 302 304 305 307 309 311 313 315 316 318 319 320 320 320 320 320 321 321 320 320 319
231 234 236 240 242 245 248 251 255 258 260 264 268 272 275 278 282 286 290 293 297 299 301 303 306 308 309 311 314 315 317 319 320 320 320 320 321 322 322 322 322 322 321
231 234 237 240 243 246 249 252 255 259 262 265 268 272 275 278 282 286 289 293 296 299 301 303 306 308 310 312 314 316 318 319 321 320 320 321 322 323 323 323 323 323 322
232 235 237 240 244 247 250 253 256 259 263 266 269 272 274 277 282 286 289 293 296 299 301 303 306 308 310 312 314 317 319 320 321 321 321 322 323 324 324 324 324 324 323
232 235 237 240 244 248 250 253 256 259 263 266 269 272 274 278 283 286 289 293 296 299 301 304 306 308 310 313 315 318 319 320 321 322 322 324 324 325 325 325 325 325 324
233 235 238 241 244 247 250 253 257 260 263 267 270 272 275 279 283 286 289 293 296 299 301 304 306 309 311 314 316 318 320 321 322 322 323 325 326 326 326 326 326 325 325
233 236 238 241 244 246 250 253 257 260 263 266 269 272 276 280 283 286 290 293 296 299 301 304 307 310 312 314 316 319 320 321 322 323 324 325 326 326 327 326 326 326 326
233 236 239 241 243 246 249 253 256 259 262 265 269 272 276 280 283 286 290 293 296 299 301 304 307 310 312 314 317 319 320 322 323 324 324 325 326 327 327 327 327 327 327
233 236 238 241 244 246 249 252 255 259 262 265 269 272 276 279 282 285 289 292 296 299 301 305 308 311 313 315 317 319 321 323 324 325 326 326 327 328 328 328 328 328 328
233 235 238 241 244 246 249 252 255 257 261 265 269 272 275 278 282 285 289 293 296 299 302 305 308 310 313 315 318 320 322 324 326 326 326 327 329 329 329 329 329 330 330
232 234 237 240 243 245 248 251 254 257 261 265 268 271 274 277 281 285 289 292 296 299 302 306 309 311 313 316 319 321 323 325 326 327 327 328 330 331 331 330 331 332 333
232 234 237 239 242 244 248 251 254 257 261 265 267 269 272 276 281 285 289 292 296 299 302 306 309 312 314 317 319 322 324 326 327 328 329 329 330 331 331 331 332 333 334
Height
5825 5827 5830 5832 5833 5835 5836 5837 5837 5837 5837 5837 5836 5836 5834 5833 5831 5829 5827 5824 5822 5819 5816 5812 5808 5804 5800 5796 5792 5787 5782 5777 5772 5767 5762 5757 5751 5745 5740 5734 5728 5723 5717
5819 5822 5824 5826 5828 5830 5831 5832 5833 5833 5833 5832 5832 5831 5830 5828 5826 5824 5822 5820 5817 5814 5811 5807 5803 5799 5795 5790 5786 5781 5776 5771 5766 5761 5755 5749 5744 5738 5732 5726 5720 5714 5708
5813 5816 5819 5821 5823 5824 5826 5827 5828 5828 5828 5828 5827 5826 5825 5823 5822 5820 5817 5815 5812 5809 5805 5802 5798 5794 5789 5785 5780 5775 5770 5765 5759 5754 5748 5742 5736 5730 5724 5717 5711 5705 5699
5806 5810 5813 5815 5817 5819 5821 5822 5823 5823 5823 5823 5822 5821 5820 5818 5816 5814 5812 5809 5806 5803 5800 5796 5792 5788 5783 5779 5774 5769 5763 5758 5752 5746 5740 5734 5728 5721 5715 5708 5702 5696 5689
5800 5803 5806 5809 5811 5814 5815 5816 5817 5818 5818 5818 5817 5816 5815 5813 5811 5809 5807 5804 5801 5798 5794 5790 5786 5782 5777 5773 5768 5762 5757 5751 5745 5739 5733 5726 5719 5713 5706 5699 5692 5686 5679
5793 5797 5800 5803 5805 5808 5809 5811 5811 5812 5812 5812 5811 5811 5809 5808 5806 5804 5801 5798 5795 5792 5788 5784 5780 5776 5771 5766 5761 5756 5750 5744 5738 5731 5725 5718 5711 5704 5696 5689 5682 5675 5668
5786 5790 5793 5796 5799 5802 5803 5805 5805 5806 5806 5806 5806 5805 5803 5802 5800 5798 5795 5792 5789 5786 5782 5778 5774 5769 5764 5759 5754 5749 5742 5736 5730 5723 5716 5709 5702 5694 5687 5679 5672 5664 5657
5779 5783 5787 5790 5793 5795 5797 5798 5799 5800 5800 5800 5800 5799 5797 5796 5794 5792 5789 5786 5783 5780 5776 5771 5767 5762 5758 5753 5747 5741 5735 5729 5722 5715 5708 5700 5692 5684 5677 5669 5661 5653 5645
5771 5776 5779 5783 5786 5788 5790 5792 5793 5794 5794 5794 5793 5793 5792 5790 5788 5786 5783 5780 5777 5773 5769 5765 5761 5756 5751 5745 5740 5734 5727 5721 5714 5706 5699 5691 5683 5674 5666 5658 5650 5641 5632
5763 5768 5772 5775 5778 5781 5783 5785 5786 5787 5787 5787 5787 5786 5785 5783 5782 5779 5777 5773 5770 5766 5762 5758 5753 5749 5744 5738 5732 5726 5719 5712 5705 5698 5690 5681 5673 5664 5655 5647 5638 5629 5619
5755 5760 5764 5768 5771 5774 5776 5778 5779 5780 5780 5781 5780 5780 5778 5777 5775 5773 5770 5767 5764 5760 5755 5751 5746 5741 5736 5731 5724 5718 5711 5704 5697 5689 5680 5672 5663 5654 5645 5635 5626 5616 5606
5748 5752 5756 5760 5763 5766 5769 5770 5772 5773 5773 5774 5773 5773 5772 5770 5768 5766 5763 5760 5757 5753 5748 5744 5739 5734 5729 5723 5717 5710 5703 5695 5688 5680 5671 5662 5653 5643 5634 5624 5614 5603 5592
5740 5745 5748 5752 5756 5759 5761 5763 5764 5765 5766 5766 5766 5766 5765 5763 5761 5759 5756 5753 5749 5746 5741 5736 5731 5726 5721 5715 5709 5702 5694 5687 5679 5670 5661 5652 5643 5633 5623 5613 5602 5591 5580
5732 5736 5740 5744 5747 5751 5753 5755 5757 5758 5759 5759 5759 5758 5757 5756 5754 5752 5749 5746 5742 5739 5734 5729 5724 5719 5713 5707 5701 5693 5686 5678 5670 5661 5651 5642 5632 5622 5612 5601 5590 5579 5568
5723 5728 5732 5736 5739 5742 5745 5747 5749 5750 5751 5751 5751 5751 5750 5749 5747 5744 5742 5738 5735 5731 5727 5722 5717 5711 5705 5699 5692 5685 5677 5669 5661 5651 5642 5632 5622 5611 5600 5589 5578 5567 5556
5714 5719 5724 5728 5731 5734 5737 5739 5741 5742 5743 5744 5744 5744 5743 5741 5739 5737 5734 5731 5727 5723 5719 5714 5709 5703 5697 5691 5684 5676 5668 5660 5651 5641 5632 5621 5611 5600 5588 5577 5566 5555 5545
5706 5711 5716 5720 5723 5726 5729 5731 5733 5735 5736 5736 5736 5736 5735 5734 5732 5729 5727 5723 5719 5715 5711 5706 5701 5695 5689 5682 5675 5667 5659 5651 5641 5632 5622 5611 5600 5589 5578 5566 5555 5545 5535
5698 5703 5707 5711 5715 5718 5721 5723 5725 5727 5728 5728 5728 5728 5727 5726 5724 5722 5719 5715 5712 5707 5703 5698 5693 5687 5681 5673 5666 5658 5650 5641 5632 5622 5612 5601 5590 5579 5567 5556 5545 5535 5525
5689 5694 5698 5703 5707 5710 5712 5715 5717 5719 5720 5720 5720 5720 5719 5718 5716 5714 5711 5707 5704 5699 5695 5690 5685 5679 5672 5665 5657 5649 5641 5631 5622 5612 5603 5592 5581 5569 5558 5547 5536 5526 5515
5680 5686 5690 5694 5698 5701 5704 5707 5709 5710 5711 5712 5712 5712 5711 5710 5708 5706 5703 5699 5696 5691 5687 5682 5676 5670 5664 5656 5649 5641 5632 5622 5613 5603 5593 5583 5572 5560 5549 5539 5528 5517 5507
5671 5677 5681 5685 5689 5692 5696 5699 5701 5702 5703 5704 5704 5704 5703 5702 5700 5697 5695 5691 5688 5684 5679 5674 5668 5662 5655 5648 5640 5632 5623 5614 5604 5593 5583 5574 5564 5553 5541 5530 5519 5508 5497
5662 5667 5672 5676 5680 5684 5688 5690 5692 5694 5695 5695 5695 5695 5695 5693 5691 5689 5686 5683 5680 5676 5671 5666 5660 5654 5647 5640 5632 5623 5614 5607 5598 5587 5575 5565 5554 5543 5532 5521 5510 5499 5489
5653 5658 5663 5668 5672 5676 5679 5681 5683 5685 5686 5687 5687 5687 5686 5685 5683 5681 5678 5675 5672 5667 5663 5658 5652 5645 5639 5632 5624 5615 5606 5596 5587 5577 5566 5556 5544 5533 5522 5512 5501 5491 5481
5644 5649 5654 5659 5663 5667 5670 5672 5674 5676 5677 5678 5679 5679 5678 5676 5675 5673 5670 5667 5664 5659 5655 5650 5644 5638 5631 5623 5615 5607 5597 5588 5578 5568 5557 5547 5536 5524 5513 5502 5492 5482 5473
5634 5640 5645 5649 5654 5658 5661 5663 5665 5667 5668 5669 5670 5670 5669 5668 5667 5665 5662 5660 5656 5651 5646 5641 5636 5630 5623 5615 5607 5599 5590 5581 5571 5560 5550 5539 5529 5517 5505 5494 5484 5475 5465
5625 5631 5635 5640 5645 5648 5651 5654 5656 5658 5660 5661 5661 5661 5661 5660 5659 5656 5654 5651 5647 5643 5638 5633 5628 5621 5615 5607 5599 5591 5582 5573 5563 5554 5543 5532 5521 5510 5500 5488 5478 5469 5460